Simultaneous Nadir Overpasses (SNOs) Predictions

Prediction of SNOs between METOP-B and TERRA Satellite Orbit:

Table of predicted SNOs for the next 14.0 days since TLE Epoch: 1/16/2021
Index Date (METOP-B) Time (METOP-B) Lat,Lon (METOP-B) SZA (METOP-B ) Date (TERRA) Time (TERRA) Lat,Lon (TERRA) SZA (TERRA ) Distance(km) Time Diff (sec)
1 01/18/2021 16:57:39 -81.29, 152.09 76.03 01/18/2021 16:58:14 -81.29, 152.09 76.02 0.44 35
2 01/18/2021 17:48:19 81.30, -40.27 104.00 01/18/2021 17:47:40 81.30, -40.16 104.00 1.90 39
3 01/21/2021 12:32:02 -81.29,-141.52 76.66 01/21/2021 12:32:27 -81.29,-141.54 76.66 0.87 25
4 01/21/2021 13:22:41 81.30, 26.46 103.41 01/21/2021 13:21:52 81.31, 26.56 103.41 1.94 49
5 01/24/2021 08:06:25 -81.30, -74.76 77.29 01/24/2021 08:06:40 -81.30, -74.83 77.29 1.21 15
6 01/24/2021 08:57:05 81.30, 92.79 102.73 01/24/2021 08:56:06 81.31, 92.87 102.71 1.42 59
7 01/27/2021 03:40:49 -81.30, -8.40 78.02 01/27/2021 03:40:54 -81.29, -8.53 78.03 2.30 5
8 01/27/2021 04:31:29 81.30, 159.09 102.00 01/27/2021 04:30:20 81.30, 159.14 101.97 1.01 69
9 01/29/2021 22:24:32 81.29,-109.91 101.17 01/29/2021 22:25:40 81.28,-109.92 101.20 0.77 68



Historial Predications of SNOs between METOP-B and TERRA
